Kokomo, IN

1:55 PM EDT on September 28, 2016 (GMT -0400)
Kokomo Municipal

Weather History for KOKK - May, 2013

Change the Weather History Date:

Wednesday, May 29, 2013

  Actual Average (KGUS) Record (KGUS)
Temperature  
Mean Temperature 76 °F -  
Max Temperature 84 °F 70 °F 91 °F (1998)
Min Temperature 68 °F 55 °F 43 °F (2008)
Cooling Degree Days 11    
Growing Degree Days 26 (Base 50)    
Moisture  
Dew Point 62 °F    
Average Humidity 63    
Maximum Humidity 78    
Minimum Humidity 48    
Precipitation  
Precipitation 0.00 in - - ()
Sea Level Pressure  
Sea Level Pressure 29.97 in    
Wind  
Wind Speed 15 mph (SSW)    
Max Wind Speed 22 mph    
Max Gust Speed 28 mph    
Visibility 10 miles    
Events      
Averages and records for this station are not official NWS values.
T = Trace of Precipitation, MM = Missing Value Source: NWS Daily Summary

Daily Weather History Graph

Daily Weather History Graph

Search for Another Location

Airport or City:

Trip Planner

Search our weather history database for the weather conditions in past years. The results will help you decide how hot, cold, wet, or windy it might be!

Date:

Astronomy

May. 29, 2013 Rise Set
Actual Time 5:17 AM CDT 8:06 PM CDT
Civil Twilight 4:44 AM CDT 8:38 PM CDT
Nautical Twilight 4:04 AM CDT 9:19 PM CDT
Astronomical Twilight 3:17 AM CDT 10:06 PM CDT
Moon No Moon Rise 10:16 AM CDT (5/29)
Length of Visible Light 15h 54m
Length of Day
14h 49m
Waning Gibbous, 73% of the Moon is Illuminated
May 29
Waning Gibbous
May 31
Last Quarter
Jun 8
New
Jun 16
First Quarter
Jun 23
Full

Hourly Weather History & Observations

Time (CDT) Temp. Heat Index Dew Point Humidity Pressure Visibility Wind Dir Wind Speed Gust Speed Precip Events Conditions
12:15 AM 73.4 °F - 64.4 °F 73% 29.92 in 10.0 mi SW 10.4 mph 17.3 mph N/A   Mostly Cloudy
12:35 AM 73.4 °F - 64.4 °F 73% 29.92 in 10.0 mi SSW 12.7 mph - N/A   Partly Cloudy
12:55 AM 73.4 °F - 64.4 °F 73% 29.92 in 10.0 mi SW 15.0 mph - N/A   Scattered Clouds
1:15 AM 73.4 °F - 64.4 °F 73% 29.92 in 10.0 mi SSW 15.0 mph 20.7 mph N/A   Overcast
1:35 AM 73.4 °F - 62.6 °F 69% 29.92 in 10.0 mi SSW 15.0 mph 20.7 mph N/A   Overcast
1:55 AM 73.4 °F - 62.6 °F 69% 29.92 in 10.0 mi SSW 15.0 mph 21.9 mph N/A   Overcast
2:15 AM 73.4 °F - 62.6 °F 69% 29.92 in 10.0 mi SSW 15.0 mph 20.7 mph N/A   Overcast
2:35 AM 73.4 °F - 60.8 °F 65% 29.93 in 10.0 mi SSW 18.4 mph 21.9 mph N/A   Overcast
2:55 AM 71.6 °F - 60.8 °F 69% 29.92 in 10.0 mi SSW 13.8 mph 20.7 mph N/A   Mostly Cloudy
3:15 AM 71.6 °F - 60.8 °F 69% 29.92 in 10.0 mi SSW 15.0 mph 20.7 mph N/A   Partly Cloudy
3:35 AM 71.6 °F - 60.8 °F 69% 29.93 in 10.0 mi SSW 15.0 mph 19.6 mph N/A   Mostly Cloudy
3:55 AM 71.6 °F - 59.0 °F 64% 29.94 in 10.0 mi SSW 15.0 mph 23.0 mph N/A   Mostly Cloudy
4:15 AM 71.6 °F - 59.0 °F 64% 29.93 in 10.0 mi SSW 17.3 mph 21.9 mph N/A   Partly Cloudy
4:35 AM 71.6 °F - 59.0 °F 64% 29.93 in 10.0 mi SSW 16.1 mph 26.5 mph N/A   Clear
4:55 AM 71.6 °F - 59.0 °F 64% 29.93 in 10.0 mi SW 16.1 mph 27.6 mph N/A   Clear
5:15 AM 71.6 °F - 59.0 °F 64% 29.94 in 10.0 mi SSW 21.9 mph 25.3 mph N/A   Clear
5:35 AM 71.6 °F - 59.0 °F 64% 29.94 in 10.0 mi SW 18.4 mph 26.5 mph N/A   Clear
5:55 AM 71.6 °F - 59.0 °F 64% 29.94 in 10.0 mi SW 19.6 mph 25.3 mph N/A   Clear
6:15 AM 71.6 °F - 59.0 °F 64% 29.95 in 10.0 mi SW 19.6 mph 26.5 mph N/A   Clear
6:35 AM 71.6 °F - 59.0 °F 64% 29.96 in 10.0 mi SW 17.3 mph 25.3 mph N/A   Clear
6:55 AM 71.6 °F - 59.0 °F 64% 29.97 in 10.0 mi SW 17.3 mph 21.9 mph N/A   Mostly Cloudy
7:15 AM 71.6 °F - 60.8 °F 69% 29.96 in 10.0 mi SW 19.6 mph 26.5 mph N/A   Scattered Clouds
7:35 AM 71.6 °F - 60.8 °F 69% 29.96 in 10.0 mi SW 17.3 mph - N/A   Clear
7:55 AM 71.6 °F - 60.8 °F 69% 29.98 in 10.0 mi SW 11.5 mph - N/A   Partly Cloudy
8:15 AM 73.4 °F - 60.8 °F 65% 29.97 in 10.0 mi SSW 17.3 mph 21.9 mph N/A   Clear
8:35 AM 73.4 °F - 62.6 °F 69% 29.97 in 10.0 mi SSW 17.3 mph - N/A   Clear
8:55 AM 73.4 °F - 62.6 °F 69% 29.97 in 10.0 mi SSW 16.1 mph 20.7 mph N/A   Clear
9:15 AM 75.2 °F - 62.6 °F 65% 29.97 in 10.0 mi SSW 18.4 mph 24.2 mph N/A   Clear
9:35 AM 75.2 °F - 62.6 °F 65% 29.98 in 10.0 mi SW 19.6 mph 23.0 mph N/A   Clear
9:55 AM 78.8 °F - 62.6 °F 57% 29.99 in 10.0 mi SW 20.7 mph 24.2 mph N/A   Clear
10:15 AM 78.8 °F - 64.4 °F 61% 29.99 in 10.0 mi SW 16.1 mph - N/A   Clear
10:35 AM 78.8 °F - 64.4 °F 61% 29.99 in 10.0 mi SW 19.6 mph 24.2 mph N/A   Clear
10:55 AM 80.6 °F 82.3 °F 64.4 °F 58% 30.00 in 10.0 mi WSW 20.7 mph 24.2 mph N/A   Clear
11:15 AM 80.6 °F 82.3 °F 64.4 °F 58% 30.00 in 10.0 mi WSW 18.4 mph 26.5 mph N/A   Clear
11:35 AM 82.4 °F 84.6 °F 66.2 °F 58% 30.00 in 10.0 mi SW 18.4 mph 25.3 mph N/A   Clear
11:55 AM 82.4 °F 84.6 °F 66.2 °F 58% 30.01 in 10.0 mi WSW 21.9 mph 27.6 mph N/A   Clear
12:15 PM 80.6 °F 82.7 °F 66.2 °F 61% 30.01 in 10.0 mi SW 19.6 mph 26.5 mph N/A   Scattered Clouds
12:35 PM 82.4 °F 84.6 °F 66.2 °F 58% 30.00 in 10.0 mi WSW 16.1 mph - N/A   Mostly Cloudy
12:55 PM 82.4 °F 84.6 °F 66.2 °F 58% 30.00 in 10.0 mi WSW 16.1 mph - N/A   Scattered Clouds
1:15 PM 84.2 °F 86.6 °F 66.2 °F 55% 30.00 in 10.0 mi SW 18.4 mph - N/A   Mostly Cloudy
1:35 PM 84.2 °F 85.6 °F 64.4 °F 51% 30.00 in 10.0 mi SW 18.4 mph 23.0 mph N/A   Partly Cloudy
1:55 PM 84.2 °F 85.6 °F 64.4 °F 51% 30.00 in 10.0 mi WSW 20.7 mph 24.2 mph N/A   Scattered Clouds
2:15 PM 84.2 °F 85.6 °F 64.4 °F 51% 30.00 in 10.0 mi SW 17.3 mph 21.9 mph N/A   Partly Cloudy
2:35 PM 84.2 °F 85.6 °F 64.4 °F 51% 29.99 in 10.0 mi SW 16.1 mph 20.7 mph N/A   Partly Cloudy
2:55 PM 84.2 °F 85.0 °F 62.6 °F 48% 29.99 in 10.0 mi WSW 17.3 mph 20.7 mph N/A   Scattered Clouds
3:15 PM 84.2 °F 85.6 °F 64.4 °F 51% 29.99 in 10.0 mi SW 16.1 mph - N/A   Scattered Clouds
3:35 PM 82.4 °F 83.9 °F 64.4 °F 54% 29.98 in 10.0 mi SSW 15.0 mph - N/A   Scattered Clouds
3:55 PM 82.4 °F 83.4 °F 62.6 °F 51% 29.98 in 10.0 mi SSW 12.7 mph - N/A   Partly Cloudy
4:15 PM 82.4 °F 83.4 °F 62.6 °F 51% 29.98 in 10.0 mi SSW 13.8 mph - N/A   Clear
4:35 PM 84.2 °F 85.0 °F 62.6 °F 48% 29.98 in 10.0 mi SSW 15.0 mph 20.7 mph N/A   Clear
4:55 PM 84.2 °F 85.0 °F 62.6 °F 48% 29.97 in 10.0 mi SSW 15.0 mph - N/A   Clear
5:15 PM 82.4 °F 83.4 °F 62.6 °F 51% 29.97 in 10.0 mi SSW 16.1 mph - N/A   Scattered Clouds
5:35 PM 82.4 °F 83.9 °F 64.4 °F 54% 29.97 in 10.0 mi SSW 15.0 mph - N/A   Partly Cloudy
5:55 PM 82.4 °F 83.9 °F 64.4 °F 54% 29.96 in 10.0 mi South 11.5 mph - N/A   Clear
6:15 PM 82.4 °F 83.9 °F 64.4 °F 54% 29.96 in 10.0 mi South 12.7 mph - N/A   Clear
6:35 PM 80.6 °F 81.8 °F 62.6 °F 54% 29.96 in 10.0 mi South 13.8 mph - N/A   Clear
6:55 PM 80.6 °F 81.5 °F 60.8 °F 51% 29.96 in 10.0 mi SSW 10.4 mph - N/A   Clear
7:15 PM 80.6 °F 81.5 °F 60.8 °F 51% 29.96 in 10.0 mi South 10.4 mph - N/A   Clear
7:35 PM 78.8 °F - 60.8 °F 54% 29.96 in 10.0 mi SSW 8.1 mph - N/A   Clear
7:55 PM 75.2 °F - 60.8 °F 61% 29.96 in 10.0 mi South 6.9 mph - N/A   Clear
8:15 PM 73.4 °F - 60.8 °F 65% 29.96 in 10.0 mi South 6.9 mph - N/A   Clear
8:35 PM 71.6 °F - 62.6 °F 73% 29.96 in 10.0 mi South 6.9 mph - N/A   Clear
8:55 PM 71.6 °F - 60.8 °F 69% 29.97 in 10.0 mi South 5.8 mph - N/A   Clear
9:15 PM 71.6 °F - 60.8 °F 69% 29.98 in 10.0 mi South 6.9 mph - N/A   Clear
9:35 PM 69.8 °F - 62.6 °F 78% 29.98 in 10.0 mi South 5.8 mph - N/A   Clear
9:55 PM 69.8 °F - 62.6 °F 78% 29.98 in 10.0 mi SSE 6.9 mph - N/A   Clear
10:15 PM 69.8 °F - 62.6 °F 78% 29.98 in 10.0 mi SSE 8.1 mph - N/A   Clear
10:35 PM 69.8 °F - 62.6 °F 78% 29.99 in 10.0 mi SSE 8.1 mph - N/A   Clear
10:55 PM 68.0 °F - 60.8 °F 78% 29.99 in 10.0 mi SSE 6.9 mph - N/A   Clear
11:15 PM 69.8 °F - 62.6 °F 78% 29.99 in 10.0 mi South 9.2 mph - N/A   Clear
11:35 PM 71.6 °F - 62.6 °F 73% 30.00 in 10.0 mi South 9.2 mph - N/A   Clear
11:55 PM 69.8 °F - 62.6 °F 78% 30.00 in 10.0 mi South 9.2 mph - N/A   Clear